Regional Weather Roundup
Issued by NWS Cleveland, OH

Home | Current Version | Previous Version | Text Only | Print | Product List | Glossary Off
Versions: 1 2 3 4 5 6 7 8 9 10 11 12 13 14 15 16 17 18 19 20 21 22 23 24 25 26 27 28 29 30 31 32 33 34 35 36 37 38 39 40 41 42 43 44 45 46 47 48 49 50

000
ASUS41 KCLE 210110
RWRCLE
OHIO REGIONAL WEATHER ROUNDUP
NATIONAL WEATHER SERVICE CLEVELAND, OH
900 PM EDT WED AUG 20 2014

NOTE: "FAIR" INDICATES FEW OR NO CLOUDS BELOW 12,000 FEET WITH NO
SIGNIFICANT WEATHER AND/OR OBSTRUCTIONS TO VISIBILITY.

OHZ001>008-015>018-024>027-034-035-043-044-210200-
   NORTHWEST OHIO

CITY           SKY/WX    TMP DP  RH WIND       PRES   REMARKS
DEFIANCE       CLEAR     75  66  73 CALM      29.92R
FINDLAY        CLEAR     74  67  78 S3        29.91R
TOLEDO EXPRESS CLEAR     72  67  84 CALM      29.90R
TOLEDO EXEC    CLEAR     78  65  63 N3        29.91R
LIMA           CLEAR     76  67  73 S3        29.93R
$$

OHZ009>014-019>023-028>033-038-089-210200-
   NORTHEAST OHIO

CITY           SKY/WX    TMP DP  RH WIND       PRES   REMARKS
CLE-HOPKINS    PTCLDY    76  65  68 CALM      29.93S
CLE-LAKEFRONT  CLEAR     75  68  78 CALM      29.90S
CUY CO. ARPT   PTCLDY    73  70  88 SW5       29.93S
LORAIN-ELYRIA  CLEAR     75  67  76 SW3       29.93R
ASHTABULA      CLEAR     69  67  93 S6        29.93S
AKRON-CANTON   PTCLDY    73  67  81 S6        29.94S
WOOSTER        LGT RAIN  70  66  87 CALM      29.95R
MANSFIELD      CLEAR     73  65  75 CALM      29.96R
YOUNGSTOWN     PTCLDY    68  66  93 CALM      29.94F
$$

OHZ042-051>053-060>062-070>072-077>081-210200-
  SOUTHWEST OHIO

CITY           SKY/WX    TMP DP  RH WIND       PRES   REMARKS
CINC-COVINGTON MOCLDY    72  68  87 SW6       30.00R
CINC-LUNKEN    MOCLDY    72  69  90 S6        29.98R
HAMILTON       MOCLDY    74  68  81 VRB3      29.98R
DAYTON         PTCLDY    77  65  66 SW6       29.96R
WRIGHT-PAT AFB CLEAR     77  67  70 S5        29.95R
DAYTON GENERAL PTCLDY    77  68  73 SW7       29.96R
WILMINGTON     PTCLDY    72  67  84 S5        29.97R
$$

OHZ036-037-039>041-045>050-054>059-063>069-073>076-082>088-210200-
  CENTRAL AND SOUTHEAST OHIO

CITY           SKY/WX    TMP DP  RH WIND       PRES   REMARKS
COLUMBUS       PTCLDY    82  63  52 CALM      29.94R
OSU AIRPORT    CLEAR     78  64  61 SW3       29.94R
BOLTON FIELD   CLEAR     71  67  87 CALM      29.96R
RICKENBACK AFB CLEAR     77  63  61 SW5       29.95R
NEWARK         CLEAR     71  69  93 CALM      29.95R FOG
MARION         CLEAR     74  67  78 CALM      29.94R
LANCASTER      CLEAR     71  66  84 SW3       29.96R
ZANESVILLE     CLEAR     69  67  93 CALM      29.96R
NEW PHILLY     CLEAR     69  69 100 SE5       29.95R
$$


USA.gov is the U.S. government's official web portal to all federal, state and local government web resources and services.